Date String (YYYY-MM-DD hh:mm:ss) UTC,Instrument flags,absolute air pressure of the measurement (hPa),sample flow rate (lpm),inlet stack bypass flow (lpm),air temperature of the measurement (°C),ambient temperature measured by the external sensor (°C),aerosol sample conditioner tube jacket temperature (°C),OPC LED temperature (°C),internal box temperature (°C),relative humidity of the measurement (%),span deviation,mass concentration of particles derived from Lorenz-Mie calculation of OPC scattering (μg/m³),mass concentration of particles derived from Lorenz-Mie calculation of OPC scattering (μg/m³),mass concentration of particles derived from Lorenz-Mie calculation of OPC scattering (μg/m³)
DateTimeUTC,F1_M11,P_M11,Q1_M11,Q2_M11,T1_M11,T2_M11,T3_M11,T4_M11,T5_M11,U1_M11,ZSPAN_M11,X0_M11,X2_M11,X1_M11
2023-09-24 02:00:00,SystemResetWarning,0830.3,4.99,000.00,028.1,025.6,000.0,036.5,029.6,12.0,0000.0,0018.96,0004.54,0002.93
2023-09-24 02:01:00,SystemResetWarning,0830.4,5.00,000.00,028.1,025.9,000.0,036.5,029.6,12.0,0000.9,0018.67,0004.54,0002.94
2023-09-24 02:02:00,SystemResetWarning,0830.5,5.00,000.00,028.1,026.2,000.0,036.5,029.7,12.0,0001.3,0018.38,0004.53,0002.95
2023-09-24 02:03:00,SystemResetWarning,0830.4,4.99,000.00,028.1,026.4,000.0,036.5,029.8,11.9,0002.1,0018.27,0004.46,0002.95
2023-09-24 02:04:00,SystemResetWarning,0830.5,4.99,000.00,028.2,026.6,000.0,036.5,029.8,11.8,0002.0,0017.62,0004.48,0002.97
2023-09-24 02:05:00,SystemResetWarning,0830.4,5.00,000.00,028.2,026.8,000.0,036.5,029.9,11.9,0000.9,0018.51,0004.51,0002.99
2023-09-24 02:06:00,SystemResetWarning,0830.5,5.01,000.00,028.2,026.9,000.0,036.5,029.9,12.0,0000.7,0018.92,0004.52,0002.98
2023-09-24 02:07:00,SystemResetWarning,0830.5,5.01,000.00,028.3,027.0,000.0,036.5,030.0,12.0,0001.0,0020.32,0004.56,0002.97
2023-09-24 02:08:00,SystemResetWarning,0830.4,5.01,000.00,028.3,027.1,000.0,036.5,030.0,12.0,0001.6,0021.36,0004.58,0002.98
2023-09-24 02:09:00,SystemResetWarning,0830.5,4.99,000.00,028.3,027.2,000.0,036.5,030.1,12.0,0001.7,0022.75,0004.61,0003.00
2023-09-24 02:10:00,SystemResetWarning,0830.7,4.99,000.00,028.4,027.3,000.0,036.6,030.1,12.0,0001.6,0023.24,0004.63,0003.01
2023-09-24 02:11:00,SystemResetWarning,0830.7,5.01,000.00,028.4,027.4,000.0,036.6,030.2,12.0,0000.8,0022.19,0004.64,0003.05
2023-09-24 02:12:00,SystemResetWarning,0830.6,5.00,000.00,028.4,027.1,000.0,036.6,030.1,12.0,0000.1,0021.46,0004.65,0003.07
2023-09-24 02:13:00,SystemResetWarning,0830.6,4.98,000.00,028.4,025.3,000.0,036.6,029.7,12.0,0000.2,0022.67,0004.70,0003.10
2023-09-24 02:14:00,SystemResetWarning,0830.5,5.02,000.00,028.3,024.5,000.0,036.5,029.6,12.1,0000.0,0021.86,0004.74,0003.11
2023-09-24 02:15:00,SystemResetWarning,0830.7,5.01,000.00,028.2,024.7,000.0,036.5,029.5,12.2,0000.0,0021.52,0004.82,0003.12
2023-09-24 02:16:00,SystemResetWarning,0830.5,5.00,000.00,028.1,025.0,000.0,036.5,029.5,12.3,0000.0,0020.93,0004.82,0003.14
2023-09-24 02:17:00,SystemResetWarning,0830.6,4.99,000.00,028.1,025.3,000.0,036.5,029.5,12.3,0000.0,0019.72,0004.80,0003.15
2023-09-24 02:18:00,SystemResetWarning,0830.6,5.00,000.00,028.1,025.7,000.0,036.5,029.6,12.3,0000.0,0018.34,0004.80,0003.19
2023-09-24 02:19:00,SystemResetWarning,0830.6,4.99,000.00,028.1,026.0,000.0,036.5,029.6,12.2,0000.0,0017.03,0004.75,0003.20
2023-09-24 02:20:00,SystemResetWarning,0830.7,5.00,000.00,028.1,026.2,000.0,036.5,029.7,12.3,0000.0,0015.63,0004.71,0003.20
2023-09-24 02:21:00,SystemResetWarning,0830.7,5.00,000.00,028.1,026.5,000.0,036.5,029.8,12.3,0000.0,0015.07,0004.72,0003.22
2023-09-24 02:22:00,SystemResetWarning,0830.7,5.00,000.00,028.2,026.7,000.0,036.5,029.8,12.3,0000.0,0015.19,0004.79,0003.22
2023-09-24 02:23:00,SystemResetWarning,0830.7,5.01,000.00,028.2,026.8,000.0,036.5,029.9,12.3,0000.0,0015.85,0004.82,0003.23
2023-09-24 02:24:00,SystemResetWarning,0830.7,5.00,000.00,028.2,026.9,000.0,036.5,029.9,12.3,0000.0,0014.77,0004.83,0003.23
2023-09-24 02:25:00,SystemResetWarning,0830.8,5.00,000.00,028.3,027.1,000.0,036.5,030.0,12.2,0002.6,0014.40,0004.81,0003.21
2023-09-24 02:26:00,SystemResetWarning,0830.8,5.00,000.00,028.3,027.1,000.0,036.5,030.0,12.2,0003.1,0014.38,0004.83,0003.22
2023-09-24 02:27:00,SystemResetWarning,0830.8,5.01,000.00,028.3,027.2,000.0,036.6,030.1,12.2,0000.3,0014.42,0004.80,0003.22
2023-09-24 02:28:00,SystemResetWarning,0830.8,5.00,000.00,028.4,027.3,000.0,036.6,030.1,12.1,0001.1,0015.11,0004.82,0003.23
2023-09-24 02:29:00,SystemResetWarning,0830.8,4.99,000.00,028.4,027.3,000.0,036.6,030.1,12.1,0000.4,0015.46,0004.84,0003.23
2023-09-24 02:30:00,SystemResetWarning,0830.8,4.99,000.00,028.4,027.2,000.0,036.6,030.1,12.1,0000.0,0015.35,0004.85,0003.23
2023-09-24 02:31:00,SystemResetWarning,0830.7,5.00,000.00,028.4,025.5,000.0,036.6,029.7,12.1,0000.0,0016.20,0004.87,0003.22
2023-09-24 02:32:00,SystemResetWarning,0830.7,5.00,000.00,028.2,024.6,000.0,036.5,029.6,12.2,0000.0,0017.05,0004.93,0003.23
2023-09-24 02:33:00,SystemResetWarning,0830.7,5.01,000.00,028.2,024.6,000.0,036.5,029.4,12.1,0000.0,0017.34,0004.91,0003.22
2023-09-24 02:34:00,SystemResetWarning,0830.7,5.00,000.00,028.1,024.9,000.0,036.5,029.4,12.2,0000.0,0017.02,0004.87,0003.21
2023-09-24 02:35:00,SystemResetWarning,0830.7,5.00,000.00,028.0,025.2,000.0,036.5,029.5,12.3,0000.0,0016.64,0004.86,0003.22
2023-09-24 02:36:00,SystemResetWarning,0830.7,5.00,000.00,028.0,025.5,000.0,036.5,029.5,12.4,0000.0,0016.65,0004.92,0003.23
2023-09-24 02:37:00,SystemResetWarning,0830.8,5.01,000.00,028.1,025.8,000.0,036.4,029.6,12.4,0000.0,0016.56,0004.91,0003.24
2023-09-24 02:38:00,SystemResetWarning,0830.8,5.00,000.00,028.1,026.1,000.0,036.5,029.6,12.4,0000.0,0018.64,0004.95,0003.23
2023-09-24 02:39:00,SystemResetWarning,0830.8,4.98,000.00,028.1,026.3,000.0,036.5,029.7,12.5,0000.0,0019.29,0004.95,0003.23
2023-09-24 02:40:00,SystemResetWarning,0830.9,5.00,000.00,028.1,026.5,000.0,036.5,029.8,12.5,0001.2,0019.22,0004.99,0003.23
2023-09-24 02:41:00,SystemResetWarning,0830.8,5.01,000.00,028.1,026.7,000.0,036.5,029.8,12.4,0003.7,0019.48,0004.99,0003.24
2023-09-24 02:42:00,SystemResetWarning,0830.8,4.99,000.00,028.2,026.8,000.0,036.5,029.8,12.4,0001.3,0018.90,0005.00,0003.25
2023-09-24 02:43:00,SystemResetWarning,0830.9,4.99,000.00,028.2,026.9,000.0,036.5,029.9,12.4,0000.7,0017.75,0004.96,0003.25
2023-09-24 02:44:00,SystemResetWarning,0830.8,5.01,000.00,028.2,027.0,000.0,036.5,029.9,12.4,0000.0,0017.69,0004.97,0003.25
2023-09-24 02:45:00,SystemResetWarning,0830.8,5.02,000.00,028.3,027.1,000.0,036.5,030.0,12.4,0000.0,0018.09,0005.01,0003.26
2023-09-24 02:46:00,SystemResetWarning,0830.8,4.99,000.00,028.3,027.1,000.0,036.5,030.0,12.4,0000.9,0018.76,0005.01,0003.26
2023-09-24 02:47:00,SystemResetWarning,0830.9,4.99,000.00,028.3,027.2,000.0,036.5,030.0,12.4,0004.0,0018.90,0005.01,0003.27
2023-09-24 02:48:00,SystemResetWarning,0830.9,5.01,000.00,028.4,027.3,000.0,036.6,030.1,12.4,0001.8,0019.38,0005.04,0003.26
2023-09-24 02:49:00,SystemResetWarning,0830.9,5.01,000.00,028.4,027.3,000.0,036.6,030.1,12.3,0004.2,0018.36,0005.03,0003.26
2023-09-24 02:50:00,SystemResetWarning,0830.9,4.99,000.00,028.4,027.4,000.0,036.6,030.1,12.2,0000.2,0017.86,0005.07,0003.25
2023-09-24 02:51:00,SystemResetWarning,0830.9,4.99,000.00,028.5,027.4,000.0,036.6,030.2,12.2,0001.1,0018.88,0005.06,0003.25
2023-09-24 02:52:00,SystemResetWarning,0830.8,5.00,000.00,028.4,026.1,000.0,036.6,029.9,12.2,0001.7,0019.28,0005.11,0003.26
2023-09-24 02:53:00,SystemResetWarning,0830.9,5.01,000.00,028.3,024.7,000.0,036.6,029.6,12.3,0000.0,0019.78,0005.07,0003.26
2023-09-24 02:54:00,SystemResetWarning,0830.8,5.01,000.00,028.2,024.5,000.0,036.5,029.5,12.3,0000.0,0020.72,0005.08,0003.26
2023-09-24 02:55:00,SystemResetWarning,0830.8,5.00,000.00,028.1,024.7,000.0,036.5,029.4,12.4,0001.2,0020.87,0005.08,0003.27
2023-09-24 02:56:00,SystemResetWarning,0830.8,5.00,000.00,028.1,025.0,000.0,036.5,029.4,12.4,0001.7,0020.45,0005.09,0003.28
2023-09-24 02:57:00,SystemResetWarning,0830.9,5.00,000.00,028.1,025.4,000.0,036.5,029.5,12.5,0000.0,0019.49,0005.12,0003.30
2023-09-24 02:58:00,SystemResetWarning,0830.9,4.99,000.00,028.1,025.7,000.0,036.5,029.6,12.4,0000.0,0019.52,0005.05,0003.29
2023-09-24 02:59:00,SystemResetWarning,0830.9,5.00,000.00,028.1,026.0,000.0,036.5,029.6,12.4,0000.0,0019.19,0004.99,0003.30
